Regional Weather Roundup
Issued by NWS Cleveland, OH

Home | Current Version | Previous Version | Graphics & Text | Print | Product List | Glossary On
Versions: 1 2 3 4 5 6 7 8 9 10 11 12 13 14 15 16 17 18 19 20 21 22 23 24 25 26 27 28 29 30 31 32 33 34 35 36 37 38 39 40 41 42 43 44 45 46 47 48 49 50
000
ASUS41 KCLE 240510
RWRCLE
OHIO REGIONAL WEATHER ROUNDUP
NATIONAL WEATHER SERVICE CLEVELAND, OH
100 AM EDT TUE APR 24 2018

NOTE: "FAIR" INDICATES FEW OR NO CLOUDS BELOW 12,000 FEET WITH NO
SIGNIFICANT WEATHER AND/OR OBSTRUCTIONS TO VISIBILITY.

OHZ001>008-015>018-024>027-034-035-043-044-240600-
   NORTHWEST OHIO

CITY           SKY/WX    TMP DP  RH WIND       PRES   REMARKS
DEFIANCE       CLOUDY    53  47  79 E7        30.12F
FINDLAY        CLOUDY    56  44  64 SE13      30.11F
TOLEDO EXPRESS CLOUDY    56  48  74 CALM      30.14F
TOLEDO EXEC    CLOUDY    56  44  64 E5        30.15F
LIMA           CLOUDY    53  48  83 SE20      30.10F
$$

OHZ009>014-019>023-028>033-038-089-240600-
   NORTHEAST OHIO

CITY           SKY/WX    TMP DP  RH WIND       PRES   REMARKS
CLE-HOPKINS    CLOUDY    57  46  66 CALM      30.19F
CLE-LAKEFRONT  CLOUDY    52  42  69 CALM      30.17F
CUY CO. ARPT   NOT AVBL
LORAIN-ELYRIA  CLOUDY    52  43  71 NE8       30.16F
ASHTABULA      FAIR      57  43  59 N3        30.20S
AKRON-CANTON   CLOUDY    57  39  51 E6        30.17F
WOOSTER        CLOUDY    53  44  71 E5        30.17F
MANSFIELD      CLOUDY    57  42  57 SE14      30.14F
YOUNGSTOWN     CLOUDY    61  40  45 SE7       30.19S
$$

OHZ042-051>053-060>062-070>072-077>081-240600-
  SOUTHWEST OHIO

CITY           SKY/WX    TMP DP  RH WIND       PRES   REMARKS
CINC-COVINGTON CLOUDY    53  48  83 E12       30.01F
CINC-LUNKEN    FAIR      53  50  89 NE6       30.03F
HAMILTON       CLOUDY    53  49  86 E7        30.05F
DAYTON         CLOUDY    52  50  93 E16G24    30.07F
WRIGHT-PAT AFB CLOUDY    53  48  83 E15       30.06F
DAYTON GENERAL CLOUDY    53  47  79 E10       30.04F
WILMINGTON     CLOUDY    51  49  92 E9        30.05F
$$

OHZ036-037-039>041-045>050-054>059-063>069-073>076-082>088-240600-
  CENTRAL AND SOUTHEAST OHIO

CITY           SKY/WX    TMP DP  RH WIND       PRES   REMARKS
COLUMBUS       RAIN      53  48  83 E8        30.12F
OSU AIRPORT    LGT RAIN  52  48  86 E13       30.11F
BOLTON FIELD   CLOUDY    52  48  86 E9        30.11F
RICKENBACK AFB MOCLDY    51  48  90 E8        30.10F
NEWARK         LGT RAIN  56  46  69 SE8       30.13F
MARION         CLOUDY    56  43  61 SE21G29   30.13F
LANCASTER      CLOUDY    53  47  79 E13       30.12F
ZANESVILLE     CLOUDY    57  45  64 SE9       30.14F
NEW PHILLY     CLOUDY    56  42  59 E3        30.16F
$$



USA.gov is the U.S. government's official web portal to all federal, state and local government web resources and services.